deployment,date,time2,latitude,longitude,time
unitless,unitless,unitless,degrees_north,degrees_east,UTC
B295,2013/07/06,19:50,31.7357,-64.176,2013-07-06T19:50:00Z
B295,2013/07/06,20:58,31.793,-64.1822,2013-07-06T20:58:00Z
B295,2013/07/07,21:23,31.7519,-64.2366,2013-07-07T21:23:00Z
B295,2013/07/07,21:49,31.8149,-64.2489,2013-07-07T21:49:00Z
B296,2013/08/02,5:47,31.575,-64.2698,2013-08-02T05:47:00Z
B296,2013/08/02,6:46,31.5858,-64.2548,2013-08-02T06:46:00Z
B296,2013/08/03,9:59,31.4221,-64.39,2013-08-03T09:59:00Z
B296,2013/08/03,11:24,31.4142,-64.3887,2013-08-03T11:24:00Z
B296,2013/08/04,12:03,31.2322,-64.4398,2013-08-04T12:03:00Z
B296,2013/08/04,13:29,31.2236,-64.4209,2013-08-04T13:29:00Z
B296,2013/08/05,16:12,31.0644,-64.3885,2013-08-05T16:12:00Z
B296,2013/08/05,16:47,31.1089,-64.4166,2013-08-05T16:47:00Z
B296,2013/08/06,16:04,30.9253,-64.2424,2013-08-06T16:04:00Z
B296,2013/08/06,16:32,30.9637,-64.2878,2013-08-06T16:32:00Z
B296,2013/08/07,14:54,30.8765,-64.1273,2013-08-07T14:54:00Z
B296,2013/08/07,15:39,30.8595,-64.1624,2013-08-07T15:39:00Z
B296,2013/08/08,6:53,30.8182,-64.0859,2013-08-08T06:53:00Z
B296,2013/08/08,7:03,30.8469,-64.0756,2013-08-08T07:03:00Z
B296,2013/08/08,22:10,30.7922,-64.0235,2013-08-08T22:10:00Z
B296,2013/08/08,23:09,30.8375,-64.0493,2013-08-08T23:09:00Z
B296,2013/08/09,7:12,30.7837,-64.0049,2013-08-09T07:12:00Z
B296,2013/08/09,8:14,30.8324,-64.0381,2013-08-09T08:14:00Z
B296,2013/08/09,16:17,30.7762,-63.9952,2013-08-09T16:17:00Z
B297,2013/09/18,3:16,31.673,-64.1702,2013-09-18T03:16:00Z
B297,2013/09/19,6:56,31.7199,-64.2841,2013-09-19T06:56:00Z
B297,2013/09/20,10:54,31.7737,-64.3929,2013-09-20T10:54:00Z
B298,2013/10/19,20:37,31.6567,-64.2086,2013-10-19T20:37:00Z
B298,2013/10/21,1:36,31.5163,-64.3663,2013-10-21T01:36:00Z
B298,2013/10/22,7:00,31.3747,-64.4908,2013-10-22T07:00:00Z
B301,2014/03/05,7:39,31.6465,-64.232,2014-03-05T07:39:00Z
B301,2014/03/06,8:34,31.6505,-64.492,2014-03-06T08:34:00Z
F033,2013/11/19,6:43,31.7887,-62.8781,2013-11-19T06:43:00Z
F033,2013/11/20,9:25,31.7721,-62.9642,2013-11-20T09:25:00Z
F033,2013/11/21,12:07,31.7048,-63.0127,2013-11-21T12:07:00Z
F033,2013/11/22,15:03,31.6865,-63.002,2013-11-22T15:03:00Z
F033,2013/11/24,3:49,31.6738,-63.0082,2013-11-24T03:49:00Z
F033,2013/11/25,15:41,31.6036,-62.9223,2013-11-25T15:41:00Z
F033,2013/11/27,4:32,31.5995,-62.6756,2013-11-27T04:32:00Z
F033,2013/11/28,15:01,31.6245,-62.6122,2013-11-28T15:01:00Z
F033,2013/11/29,15:43,31.6242,-62.6006,2013-11-29T15:43:00Z
F033,2013/12/02,3:48,31.6334,-62.5646,2013-12-02T03:48:00Z
F033,2013/12/03,15:36,31.5948,-62.6393,2013-12-03T15:36:00Z
F033,2013/12/05,2:43,31.5682,-62.5899,2013-12-05T02:43:00Z
F033,2013/12/06,14:57,31.5582,-62.521,2013-12-06T14:57:00Z
F033,2013/12/09,3:47,31.5726,-62.5194,2013-12-09T03:47:00Z
F033,2013/12/10,14:25,31.6222,-62.5251,2013-12-10T14:25:00Z
F033,2013/12/12,2:36,31.6907,-62.6219,2013-12-12T02:36:00Z
F033,2013/12/13,14:34,31.6373,-62.7834,2013-12-13T14:34:00Z
F033,2013/12/16,3:48,31.6529,-62.7929,2013-12-16T03:48:00Z
F033,2013/12/17,15:52,31.5837,-62.7555,2013-12-17T15:52:00Z
F033,2013/12/19,3:01,31.5744,-62.5997,2013-12-19T03:01:00Z
F033,2013/12/20,13:35,31.6552,-62.5497,2013-12-20T13:35:00Z
F033,2013/12/23,3:41,31.769,-62.5619,2013-12-23T03:41:00Z
F033,2013/12/24,15:38,31.9788,-62.5648,2013-12-24T15:38:00Z
F033,2013/12/26,2:43,32.0801,-62.6208,2013-12-26T02:43:00Z
F033,2013/12/27,14:35,32.1612,-62.7621,2013-12-27T14:35:00Z
F033,2013/12/30,3:40,32.2275,-62.8067,2013-12-30T03:40:00Z
F033,2013/12/31,14:46,32.2713,-62.8661,2013-12-31T14:46:00Z
F033,2014/01/02,2:31,32.3,-62.8941,2014-01-02T02:31:00Z
F033,2014/01/03,14:28,32.261,-62.8283,2014-01-03T14:28:00Z
F033,2014/01/06,3:33,32.3329,-62.8689,2014-01-06T03:33:00Z
F033,2014/01/07,15:22,32.4353,-62.7899,2014-01-07T15:22:00Z
F033,2014/01/09,3:57,32.537,-62.7459,2014-01-09T03:57:00Z
F033,2014/01/10,14:06,32.6209,-62.8333,2014-01-10T14:06:00Z
F033,2014/01/13,3:33,32.6961,-62.869,2014-01-13T03:33:00Z
F033,2014/01/14,15:56,32.9253,-62.9832,2014-01-14T15:56:00Z
F033,2014/01/16,2:13,33.2017,-63.1197,2014-01-16T02:13:00Z
F033,2014/01/17,14:10,33.5756,-63.2341,2014-01-17T14:10:00Z
F033,2014/01/20,3:35,33.7528,-63.1668,2014-01-20T03:35:00Z
F033,2014/01/21,14:04,33.947,-63.1627,2014-01-21T14:04:00Z
F033,2014/01/23,2:01,34.072,-63.1983,2014-01-23T02:01:00Z
F033,2014/01/24,18:09,34.1478,-63.279,2014-01-24T18:09:00Z
F033,2014/01/27,3:39,34.1352,-63.1788,2014-01-27T03:39:00Z
F033,2014/01/29,3:35,34.0945,-63.0469,2014-01-29T03:35:00Z
F033,2014/01/30,15:29,34.0642,-62.742,2014-01-30T15:29:00Z
F033,2014/02/01,1:42,34.0783,-62.3944,2014-02-01T01:42:00Z
F033,2014/02/03,3:37,34.0693,-62.2614,2014-02-03T03:37:00Z
F033,2014/02/04,15:17,33.9712,-62.18,2014-02-04T15:17:00Z
F033,2014/02/06,2:29,33.8359,-62.0108,2014-02-06T02:29:00Z
F033,2014/02/07,14:19,33.6893,-61.7703,2014-02-07T14:19:00Z
F033,2014/02/10,3:29,33.5996,-61.6816,2014-02-10T03:29:00Z
F033,2014/02/11,14:20,33.7037,-61.4432,2014-02-11T14:20:00Z
F033,2014/02/13,2:23,33.9885,-61.3763,2014-02-13T02:23:00Z
F033,2014/02/14,14:13,34.3431,-61.6006,2014-02-14T14:13:00Z
F033,2014/02/17,3:36,34.5509,-62.0229,2014-02-17T03:36:00Z
F033,2014/02/18,19:42,34.5731,-62.4729,2014-02-18T19:42:00Z
F033,2014/02/20,9:02,34.3843,-63.1796,2014-02-20T09:02:00Z
F033,2014/02/21,20:03,34.0127,-63.6849,2014-02-21T20:03:00Z
F033,2014/02/24,3:30,33.7651,-63.8894,2014-02-24T03:30:00Z
F033,2014/02/25,15:12,33.355,-63.8601,2014-02-25T15:12:00Z
F033,2014/02/27,1:37,33.0985,-63.47,2014-02-27T01:37:00Z
F033,2014/02/28,13:23,33.2051,-63.013,2014-02-28T13:23:00Z
F033,2014/03/03,3:33,33.4746,-62.9537,2014-03-03T03:33:00Z
F033,2014/03/04,15:47,33.8912,-63.1196,2014-03-04T15:47:00Z
F033,2014/03/06,3:27,34.1489,-63.6519,2014-03-06T03:27:00Z
F033,2014/03/07,15:08,34.0271,-64.3825,2014-03-07T15:08:00Z
F033,2014/03/10,3:18,NaN,NaN,2014-03-10T03:18:00Z
F033,2014/03/12,3:28,NaN,NaN,2014-03-12T03:28:00Z
F033,2014/03/14,3:16,NaN,NaN,2014-03-14T03:16:00Z
F033,2014/03/16,3:37,33.1917,-65.0151,2014-03-16T03:37:00Z
F033,2014/03/17,20:36,NaN,NaN,2014-03-17T20:36:00Z
F033,2014/03/21,7:05,NaN,NaN,2014-03-21T07:05:00Z
F033,2014/03/24,18:00,NaN,NaN,2014-03-24T18:00:00Z
F033,2014/03/26,10:26,NaN,NaN,2014-03-26T10:26:00Z
F033,2014/03/28,2:59,33.0613,-64.7109,2014-03-28T02:59:00Z
F033,2014/03/29,19:17,33.5574,-64.5609,2014-03-29T19:17:00Z
F033,2014/03/31,11:54,NaN,NaN,2014-03-31T11:54:00Z
F033,2014/04/02,5:43,NaN,NaN,2014-04-02T05:43:00Z
F033,2014/04/02,5:43,NaN,NaN,2014-04-02T05:43:00Z
F034,2014/04/11,20:15,31.7071,-64.1605,2014-04-11T20:15:00Z
F034,2014/04/13,7:06,31.713,-64.2219,2014-04-13T07:06:00Z
F034,2014/04/14,17:49,31.749,-64.2763,2014-04-14T17:49:00Z
F034,2014/04/16,3:54,31.7395,-64.3306,2014-04-16T03:54:00Z
F034,2014/04/17,14:52,31.7632,-64.3868,2014-04-17T14:52:00Z
F034,2014/04/19,2:51,31.7997,-64.4145,2014-04-19T02:51:00Z
F034,2014/04/21,3:50,31.7368,-64.4319,2014-04-21T03:50:00Z
F034,2014/04/22,14:32,31.7088,-64.4675,2014-04-22T14:32:00Z
F034,2014/04/24,1:38,31.6937,-64.4913,2014-04-24T01:38:00Z
F034,2014/04/25,13:35,31.6462,-64.5558,2014-04-25T13:35:00Z
F034,2014/04/28,3:44,31.5318,-64.6746,2014-04-28T03:44:00Z
F034,2014/04/29,14:51,31.5763,-64.7287,2014-04-29T14:51:00Z
F034,2014/05/01,2:09,31.5468,-64.7769,2014-05-01T02:09:00Z
F034,2014/05/02,14:03,31.5543,-64.8205,2014-05-02T14:03:00Z
F034,2014/05/05,3:47,31.4515,-64.9349,2014-05-05T03:47:00Z
F034,2014/05/06,14:09,31.4338,-64.9427,2014-05-06T14:09:00Z
F034,2014/05/08,2:02,31.4569,-64.9452,2014-05-08T02:02:00Z
F034,2014/05/09,13:58,31.5072,-64.9297,2014-05-09T13:58:00Z
F034,2014/05/12,3:48,31.5543,-64.9899,2014-05-12T03:48:00Z
F034,2014/05/13,14:33,31.5727,-64.9509,2014-05-13T14:33:00Z
F034,2014/05/15,1:44,31.5884,-64.9233,2014-05-15T01:44:00Z
F034,2014/05/16,13:34,31.5604,-64.9202,2014-05-16T13:34:00Z
F034,2014/05/19,3:47,31.5405,-64.9578,2014-05-19T03:47:00Z
F034,2014/05/20,15:04,31.4373,-64.9695,2014-05-20T15:04:00Z
F034,2014/05/22,2:59,31.366,-65.004,2014-05-22T02:59:00Z
F034,2014/05/23,13:49,31.2749,-65.0288,2014-05-23T13:49:00Z
F034,2014/05/26,3:52,31.2084,-65.123,2014-05-26T03:52:00Z
F034,2014/05/27,14:42,31.1563,-65.1368,2014-05-27T14:42:00Z
F034,2014/05/29,2:31,31.1057,-65.1627,2014-05-29T02:31:00Z
F034,2014/05/30,14:27,31.0279,-65.1595,2014-05-30T14:27:00Z
F034,2014/06/02,3:45,31.0098,-65.1747,2014-06-02T03:45:00Z
F034,2014/06/03,14:32,30.967,-65.1427,2014-06-03T14:32:00Z
F034,2014/06/05,2:26,30.8505,-65.0129,2014-06-05T02:26:00Z
F034,2014/06/06,12:35,30.7727,-65.0018,2014-06-06T12:35:00Z
F034,2014/06/09,3:52,30.6577,-65.0549,2014-06-09T03:52:00Z
F034,2014/06/10,15:51,30.572,-65.1702,2014-06-10T15:51:00Z
F034,2014/06/12,2:10,30.5099,-65.2067,2014-06-12T02:10:00Z
F034,2014/06/13,14:00,30.4744,-65.2519,2014-06-13T14:00:00Z
F034,2014/06/16,3:51,30.3439,-65.2618,2014-06-16T03:51:00Z
F034,2014/06/17,15:43,30.2827,-65.3204,2014-06-17T15:43:00Z
F034,2014/06/19,3:28,30.2411,-65.4175,2014-06-19T03:28:00Z
F034,2014/06/20,15:22,30.1803,-65.5328,2014-06-20T15:22:00Z
F034,2014/06/23,3:51,30.1494,-65.574,2014-06-23T03:51:00Z
F034,2014/06/24,14:54,30.0977,-65.6756,2014-06-24T14:54:00Z
F034,2014/06/26,2:50,30.0393,-65.8063,2014-06-26T02:50:00Z
F034,2014/06/27,13:15,29.987,-65.8942,2014-06-27T13:15:00Z
F034,2014/06/30,3:51,29.9965,-65.9862,2014-06-30T03:51:00Z
F034,2014/07/01,15:49,29.9675,-66.0629,2014-07-01T15:49:00Z
F034,2014/07/03,2:24,29.9499,-66.1289,2014-07-03T02:24:00Z
F034,2014/07/04,14:14,29.9108,-66.1964,2014-07-04T14:14:00Z
F034,2014/07/07,3:58,29.9412,-66.291,2014-07-07T03:58:00Z
F034,2014/07/08,14:26,29.9178,-66.3621,2014-07-08T14:26:00Z
F034,2014/07/10,2:10,NaN,NaN,2014-07-10T02:10:00Z
F034,2014/07/11,18:09,NaN,NaN,2014-07-11T18:09:00Z
F034,2014/07/14,3:41,NaN,NaN,2014-07-14T03:41:00Z
F034,2014/07/16,3:41,NaN,NaN,2014-07-16T03:41:00Z
F034,2014/07/17,19:57,NaN,NaN,2014-07-17T19:57:00Z
F034,2014/07/18,21:18,NaN,NaN,2014-07-18T21:18:00Z
F034,2014/07/20,3:12,NaN,NaN,2014-07-20T03:12:00Z
F034,2014/07/21,6:23,29.6353,-67.1214,2014-07-21T06:23:00Z
F034,2014/07/22,11:25,29.6615,-67.2758,2014-07-22T11:25:00Z
F034,2014/07/23,8:58,29.6575,-67.3108,2014-07-23T08:58:00Z
F034,2014/07/24,8:45,29.6416,-67.3664,2014-07-24T08:45:00Z
F034,2014/07/25,8:26,29.6499,-67.4321,2014-07-25T08:26:00Z
F034,2014/07/26,7:50,29.6417,-67.4683,2014-07-26T07:50:00Z
F034,2014/07/27,7:56,29.6377,-67.5176,2014-07-27T07:56:00Z
F034,2014/07/28,6:11,29.6332,-67.5276,2014-07-28T06:11:00Z
F034,2014/07/29,3:02,29.6189,-67.5332,2014-07-29T03:02:00Z
F034,2014/07/30,1:52,29.6008,-67.5354,2014-07-30T01:52:00Z
F034,2014/07/30,23:09,29.5838,-67.5258,2014-07-30T23:09:00Z
F034,2014/07/31,21:21,29.5637,-67.5129,2014-07-31T21:21:00Z
F034,2014/08/01,18:11,29.5422,-67.4816,2014-08-01T18:11:00Z
F034,2014/08/04,2:07,29.6367,-67.5056,2014-08-04T02:07:00Z
F034,2014/08/05,12:22,29.591,-67.4795,2014-08-05T12:22:00Z
F034,2014/08/06,22:37,29.5243,-67.4271,2014-08-06T22:37:00Z
F034,2014/08/08,7:20,29.4742,-67.4022,2014-08-08T07:20:00Z
F034,2014/08/10,2:08,29.5078,-67.4105,2014-08-10T02:08:00Z
F034,2014/08/11,12:24,29.4259,-67.3517,2014-08-11T12:24:00Z
F034,2014/08/12,21:13,29.3772,-67.334,2014-08-12T21:13:00Z
F034,2014/08/14,8:08,29.3195,-67.2857,2014-08-14T08:08:00Z
F034,2014/08/16,2:07,29.3057,-67.2772,2014-08-16T02:07:00Z
F034,2014/08/18,3:42,29.284,-67.2586,2014-08-18T03:42:00Z
F034,2014/08/19,14:01,29.2586,-67.1951,2014-08-19T14:01:00Z
F034,2014/08/21,1:52,29.2733,-67.1457,2014-08-21T01:52:00Z
F034,2014/08/22,12:43,29.3816,-67.0861,2014-08-22T12:43:00Z
F034,2014/08/25,3:43,29.3801,-67.1277,2014-08-25T03:43:00Z
F034,2014/08/26,15:44,29.4656,-67.2276,2014-08-26T15:44:00Z
F034,2014/08/28,2:47,29.5125,-67.4038,2014-08-28T02:47:00Z
F034,2014/08/29,13:29,29.4943,-67.5815,2014-08-29T13:29:00Z
F034,2014/09/01,3:40,29.4386,-67.7072,2014-09-01T03:40:00Z
F034,2014/09/02,15:30,29.3239,-68.0228,2014-09-02T15:30:00Z
F034,2014/09/04,2:57,29.2257,-68.1686,2014-09-04T02:57:00Z
F034,2014/09/05,14:50,29.1127,-68.3197,2014-09-05T14:50:00Z
F034,2014/09/08,3:46,29.059,-68.3934,2014-09-08T03:46:00Z
F034,2014/09/09,14:06,28.9954,-68.4851,2014-09-09T14:06:00Z
F034,2014/09/11,1:56,28.9271,-68.5862,2014-09-11T01:56:00Z
F034,2014/09/12,13:47,28.8534,-68.6823,2014-09-12T13:47:00Z
F034,2014/09/15,3:43,28.7878,-68.7595,2014-09-15T03:43:00Z
F034,2014/09/16,14:38,28.7364,-68.8366,2014-09-16T14:38:00Z
F034,2014/09/18,2:32,28.7029,-68.9162,2014-09-18T02:32:00Z
F034,2014/09/19,12:45,28.6619,-68.9594,2014-09-19T12:45:00Z
F034,2014/09/22,3:48,28.5639,-69.0021,2014-09-22T03:48:00Z
F034,2014/09/23,15:46,28.5432,-69.0228,2014-09-23T15:46:00Z
F034,2014/09/25,2:01,28.5061,-69.025,2014-09-25T02:01:00Z
F034,2014/09/26,13:09,28.4757,-69.0132,2014-09-26T13:09:00Z
F034,2014/09/29,3:48,28.4094,-69.005,2014-09-29T03:48:00Z
F034,2014/09/30,15:41,28.4323,-68.9424,2014-09-30T15:41:00Z
F034,2014/10/02,3:36,28.4951,-68.8464,2014-10-02T03:36:00Z
F034,2014/10/03,15:15,28.582,-68.7362,2014-10-03T15:15:00Z
F034,2014/10/06,3:49,28.6395,-68.6695,2014-10-06T03:49:00Z
F034,2014/10/07,15:31,28.7702,-68.585,2014-10-07T15:31:00Z
F034,2014/10/09,3:19,28.9019,-68.5136,2014-10-09T03:19:00Z
F034,2014/10/10,13:51,28.9959,-68.4887,2014-10-10T13:51:00Z
F034,2014/10/13,3:44,29.0746,-68.4517,2014-10-13T03:44:00Z
F034,2014/10/14,15:37,29.1294,-68.4007,2014-10-14T15:37:00Z
F034,2014/10/16,1:59,29.1732,-68.3914,2014-10-16T01:59:00Z
F034,2014/10/17,13:50,29.2033,-68.3753,2014-10-17T13:50:00Z
F034,2014/10/20,4:00,29.1926,-68.4005,2014-10-20T04:00:00Z
F034,2014/10/21,14:33,29.2082,-68.3932,2014-10-21T14:33:00Z
F034,2014/10/23,2:22,29.2131,-68.3945,2014-10-23T02:22:00Z
F034,2014/10/24,13:32,29.2118,-68.3902,2014-10-24T13:32:00Z
F034,2014/10/27,3:43,29.1597,-68.3715,2014-10-27T03:43:00Z
F034,2014/10/28,17:15,29.155,-68.3868,2014-10-28T17:15:00Z
F034,2014/10/30,4:31,29.1374,-68.3914,2014-10-30T04:31:00Z
F034,2014/10/31,16:22,29.1159,-68.4026,2014-10-31T16:22:00Z
F034,2014/11/03,3:47,29.0272,-68.4175,2014-11-03T03:47:00Z
F034,2014/11/04,15:36,29.0146,-68.4067,2014-11-04T15:36:00Z
F034,2014/11/06,3:24,28.9992,-68.4191,2014-11-06T03:24:00Z
F034,2014/11/07,14:13,28.9798,-68.4228,2014-11-07T14:13:00Z
F034,2014/11/10,3:42,28.9223,-68.4353,2014-11-10T03:42:00Z
F034,2014/11/11,16:12,28.9047,-68.4327,2014-11-11T16:12:00Z
F034,2014/11/13,3:07,28.9029,-68.4289,2014-11-13T03:07:00Z
F034,2014/11/14,14:57,28.8919,-68.4165,2014-11-14T14:57:00Z
F034,2014/11/17,3:46,28.8962,-68.4044,2014-11-17T03:46:00Z
F034,2014/11/18,14:30,28.9027,-68.399,2014-11-18T14:30:00Z
F034,2014/11/20,2:58,28.8969,-68.3867,2014-11-20T02:58:00Z
F034,2014/11/21,13:24,28.8892,-68.4086,2014-11-21T13:24:00Z
F034,2014/11/24,3:39,28.8573,-68.4429,2014-11-24T03:39:00Z
